Weather History for Glens Falls, NY

Change the Weather History Date:

Saturday, April 28, 2012

  Actual Average Record
Temperature  
Mean Temperature 42 °F 50 °F  
Max Temperature 54 °F 62 °F 90 °F (1962)
Min Temperature 30 °F 37 °F 22 °F (1972)
Degree Days  
Heating Degree Days 23 16  
Month to date heating degree days 540 583  
Since 1 July heating degree days 5772 7246  
Cooling Degree Days 0 0  
Month to date cooling degree days 4 0  
Year to date cooling degree days 4 0  
Moisture  
Dew Point 16 °F    
Average Humidity 40    
Maximum Humidity 63    
Minimum Humidity 16    
Precipitation  
Precipitation 0.00 in 0.11 in 1.47 in (1988)
Month to date precipitation 2.69 2.77  
Year to date precipitation 6.86 10.65  
Sea Level Pressure  
Sea Level Pressure 30.14 in    
Wind  
Wind Speed 6 mph (NW)    
Max Wind Speed 17 mph    
Max Gust Speed 21 mph    
Visibility 10 miles    
Events      
T = Trace of Precipitation, MM = Missing Value Source: NWS Daily Summary

Daily Weather History Graph

Daily Weather History Graph

Search for Another Location

Airport:

Trip Planner

Search our weather history database for the weather conditions in past years. The results will help you decide how hot, cold, wet, or windy it might be!

Date:

Astronomy

Apr. 28, 2012 Rise Set
Actual Time 5:51 AM EDT 7:53 PM EDT
Civil Twilight 5:20 AM EDT 8:24 PM EDT
Nautical Twilight 4:42 AM EDT 9:02 PM EDT
Astronomical Twilight 4:00 AM EDT 9:44 PM EDT
Moon 11:27 AM EDT (4/28) 1:17 AM EDT (4/28)
Length of Visible Light 15h 04m
Length of Day
14h 02m
Waxing Crescent, 42% of the Moon is Illuminated
Apr 28
Waxing Crescent
Apr 29
First Quarter
May 5
Full
May 12
Last Quarter
May 20
New

Hourly Weather History & Observations

Time (EDT) Temp. Windchill Dew Point Humidity Pressure Visibility Wind Dir Wind Speed Gust Speed Precip Events Conditions
12:53 AM 37.0 °F 32.4 °F 21.9 °F 54% 30.11 in 10.0 mi NNW 5.8 mph - N/A   Overcast
1:53 AM 35.6 °F 29.2 °F 21.2 °F 56% 30.09 in 10.0 mi NNW 8.1 mph - N/A   Mostly Cloudy
2:53 AM 34.0 °F 27.2 °F 21.9 °F 61% 30.12 in 10.0 mi NNW 8.1 mph - N/A   Overcast
3:53 AM 33.1 °F 26.1 °F 19.0 °F 56% 30.14 in 10.0 mi North 8.1 mph - N/A   Overcast
4:53 AM 33.1 °F 25.5 °F 18.0 °F 54% 30.15 in 10.0 mi NNW 9.2 mph - N/A   Overcast
5:53 AM 30.9 °F 24.3 °F 19.0 °F 61% 30.17 in 10.0 mi NNW 6.9 mph - N/A   Scattered Clouds
6:53 AM 33.1 °F 26.9 °F 19.0 °F 56% 30.18 in 10.0 mi NW 6.9 mph - N/A   Clear
7:53 AM 35.1 °F 30.1 °F 19.0 °F 52% 30.21 in 10.0 mi WNW 5.8 mph - N/A   Clear
8:53 AM 36.0 °F - 18.0 °F 48% 30.20 in 10.0 mi Calm Calm - 0.00 in   Clear
9:53 AM 39.9 °F - 17.1 °F 40% 30.20 in 10.0 mi Calm Calm - N/A   Clear
10:53 AM 43.0 °F 40.3 °F 17.1 °F 35% 30.19 in 10.0 mi Variable 4.6 mph - N/A   Clear
11:53 AM 46.0 °F 44.8 °F 15.1 °F 29% 30.16 in 10.0 mi Variable 3.5 mph - N/A   Clear
12:53 PM 48.0 °F - 19.0 °F 32% 30.14 in 10.0 mi ESE 8.1 mph - N/A   Clear
1:53 PM 50.0 °F - 14.0 °F 24% 30.13 in 10.0 mi Variable 3.5 mph - N/A   Clear
2:53 PM 52.0 °F - 12.9 °F 21% 30.11 in 10.0 mi Calm Calm - N/A   Clear
3:53 PM 52.0 °F - 14.0 °F 22% 30.09 in 10.0 mi Variable 3.5 mph - N/A   Clear
4:53 PM 54.0 °F - 8.1 °F 16% 30.08 in 10.0 mi West 8.1 mph - N/A   Clear
5:53 PM 53.1 °F - 9.0 °F 17% 30.08 in 10.0 mi West 8.1 mph - N/A   Clear
6:53 PM 51.1 °F - 9.0 °F 18% 30.09 in 10.0 mi West 9.2 mph - N/A   Clear
7:53 PM 48.0 °F - 10.0 °F 22% 30.10 in 10.0 mi West 5.8 mph - N/A   Clear
8:53 PM 43.0 °F 39.5 °F 16.0 °F 34% 30.13 in 10.0 mi WNW 5.8 mph - N/A   Clear
9:53 PM 42.1 °F 37.7 °F 18.0 °F 38% 30.14 in 10.0 mi NW 6.9 mph - N/A   Clear
10:53 PM 43.0 °F 36.8 °F 15.1 °F 32% 30.14 in 10.0 mi NNW 11.5 mph - N/A   Clear
11:53 PM 39.0 °F - 19.0 °F 45% 30.15 in 10.0 mi Calm Calm - N/A   Clear